Location: Sweet Grass
(48.9965°N, 111.9649°W)
Time: 08:14:17
(UTC+00:00)

EO-79 - Pass Details

Date: 31 March 2023
Orbit: 578 x 593 km, 98.0° (Epoch: 03 June)

Event Time Altitude Azimuth Distance (km) Brightness Sun altitude
Rises 10:31:32 0° 6° (N) 2,835 ? -24.2°
Reaches altitude 10° 10:33:51 10° 357° (N) 1,926 ? -23.9°
Enters shadow 10:36:40 30° 320° (NW) 1,078 ? -23.5°
